Flag for U.S.A. Weather past 2 weeks in Lubbock, Texas, U.S.A.

Now
78 °F

Passing clouds.


Feels Like: 77 °F
Forecast: 51 / 78 °F
Wind: 16 mph from Southwest

Location: Lubbock International Airport

Current Time: Apr 25, 2015 at 7:17:44 PM

Latest Report: Apr 25, 2015 at 6:53 PM


Visibility: 10 mi

Pressure: 29.59 "Hg

Humidity: 16%

Dew point: 29 °F

Location of LubbockLocation

Historic Weather in Lubbock — Graph

°F

Lubbock temperature yesterday

Maximum temperature yesterday: 80 °F (at 3:53 PM)
Minimum temperature yesterday: 59 °F (at 11:53 PM)
Average temperature yesterday: 68 °F

Past Weeks' High & Low Weather Summary

 TemperatureHumidityPressure
High81 °F (Apr 12, 3:53 PM)100% (Apr 18, 5:53 AM)30.19 "Hg (Apr 18, 5:53 AM)
Low39 °F (Apr 20, 5:53 AM)11% (Apr 18, 3:53 PM)29.55 "Hg (Apr 24, 3:53 PM)
Average62 °F58%29.83 "Hg
* Reported Apr 10 5:53 PM — Apr 25 5:53 PM, Lubbock, Weather by CustomWeather, © 2015

Note: Actual official high and low records may vary slightly from our data, if they occured in-between our weather recording intervals... More about our weather records

Advertising

Lubbock weather history for previous 24 hours

 ConditionsComfort  
Time TempWeatherWind HumidityBarometerVisibility
5:53 PM
Sat, Apr 25
79 °FPassing clouds.16 mph16%29.59 "Hg10 mi
4:53 PM80 °FPassing clouds.21 mph15%29.60 "Hg10 mi
3:53 PM80 °FPassing clouds.18 mph15%29.62 "Hg10 mi
2:53 PM80 °FPassing clouds.20 mph17%29.65 "Hg10 mi
1:53 PM79 °FSunny.21 mph17%29.67 "Hg10 mi
12:53 PM77 °FSunny.18 mph21%29.69 "Hg10 mi
11:53 AM75 °FSunny.21 mph24%29.70 "Hg10 mi
10:53 AM71 °FSunny.20 mph29%29.71 "Hg10 mi
9:53 AM67 °FSunny.23 mph33%29.72 "Hg10 mi
8:53 AM60 °FSunny.21 mph41%29.73 "Hg10 mi
7:53 AM55 °FClear.17 mph47%29.72 "Hg10 mi
6:53 AM53 °FClear.17 mph48%29.71 "Hg10 mi
5:53 AM51 °FClear.14 mph52%29.70 "Hg10 mi
4:53 AM52 °FClear.14 mph50%29.69 "Hg10 mi
3:53 AM51 °FClear.12 mph52%29.69 "Hg10 mi
2:53 AM52 °FClear.10 mph49%29.69 "Hg10 mi
1:53 AM51 °FClear.9 mph48%29.70 "Hg10 mi
12:53 AM55 °FClear.12 mph40%29.69 "Hg10 mi
11:53 PM
Fri, Apr 24
59 °FClear.12 mph33%29.69 "Hg10 mi
10:53 PM60 °FClear.15 mph31%29.66 "Hg10 mi
9:53 PM63 °FClear.12 mph26%29.63 "Hg10 mi
8:53 PM67 °FPassing clouds.18 mph20%29.62 "Hg10 mi
7:53 PM72 °FPassing clouds.28 mph20%29.59 "Hg10 mi
Weather by CustomWeather, © 2015

See weather overviewHow to use our weather pages